Time,TemperatureF,DewpointF,PressureIn,WindDirection,WindDirectionDegrees,WindSpeedMPH,WindSpeedGustMPH,Humidity,HourlyPrecipIn,Conditions,Clouds,dailyrainin,SolarRadiationWatts/m^2,SoftwareType,DateUTC
2013-05-26 00:01:00,39.0,3.0,-100.00,WNW,287,3.0,5.0,22,0.00,,,0.00,0.000000,,2013-05-26 07:01:00,
2013-05-26 00:11:00,39.0,3.0,-100.00,WNW,287,3.0,5.0,22,0.00,,,0.00,0.000000,,2013-05-26 07:11:00,
2013-05-26 00:21:00,39.0,3.0,-100.00,WNW,287,3.0,5.0,22,0.00,,,0.00,0.000000,,2013-05-26 07:21:00,
2013-05-26 01:01:00,37.0,1.0,-100.00,WNW,292,2.0,5.0,21,0.00,,,0.00,0.000000,,2013-05-26 08:01:00,
2013-05-26 01:53:00,40.0,2.0,-100.00,WNW,293,0.0,4.0,20,-99.99,,,0.00,0.000000,,2013-05-26 08:53:00,
2013-05-26 02:01:00,40.0,2.0,-100.00,WNW,293,0.0,4.0,20,-99.99,,,0.00,0.000000,,2013-05-26 09:01:00,
2013-05-26 02:11:00,40.0,2.0,-100.00,WNW,293,0.0,4.0,20,-99.99,,,0.00,0.000000,,2013-05-26 09:11:00,
2013-05-26 02:21:00,40.0,2.0,-100.00,WNW,293,0.0,4.0,20,-99.99,,,0.00,0.000000,,2013-05-26 09:21:00,
2013-05-26 02:33:00,40.0,2.0,-100.00,WNW,293,0.0,4.0,20,-99.99,,,0.00,0.000000,,2013-05-26 09:33:00,
2013-05-26 02:53:00,37.0,0.0,-100.00,WNW,293,0.0,4.0,20,0.00,,,0.00,0.000000,,2013-05-26 09:53:00,
2013-05-26 03:02:00,37.0,0.0,-100.00,WNW,293,0.0,4.0,20,0.00,,,0.00,0.000000,,2013-05-26 10:02:00,
2013-05-26 03:12:00,37.0,0.0,-100.00,WNW,293,0.0,4.0,20,0.00,,,0.00,0.000000,,2013-05-26 10:12:00,
2013-05-26 03:22:00,37.0,0.0,-100.00,WNW,293,0.0,4.0,20,0.00,,,0.00,0.000000,,2013-05-26 10:22:00,
2013-05-26 03:52:00,38.0,2.0,-100.00,WNW,290,1.0,4.0,21,0.00,,,0.00,0.000000,,2013-05-26 10:52:00,
2013-05-26 04:03:00,38.0,2.0,-100.00,WNW,290,1.0,4.0,21,0.00,,,0.00,0.000000,,2013-05-26 11:03:00,
2013-05-26 04:11:00,38.0,2.0,-100.00,WNW,290,1.0,4.0,21,0.00,,,0.00,0.000000,,2013-05-26 11:11:00,
2013-05-26 04:22:00,38.0,2.0,-100.00,WNW,290,1.0,4.0,21,0.00,,,0.00,0.000000,,2013-05-26 11:22:00,
2013-05-26 04:52:00,38.0,3.0,-100.00,WNW,287,2.0,6.0,22,0.00,,,0.00,0.000000,,2013-05-26 11:52:00,
2013-05-26 05:01:00,38.0,3.0,-100.00,WNW,287,2.0,6.0,22,0.00,,,0.00,0.000000,,2013-05-26 12:01:00,
2013-05-26 05:11:00,38.0,3.0,-100.00,WNW,287,2.0,6.0,22,0.00,,,0.00,0.000000,,2013-05-26 12:11:00,
2013-05-26 05:21:00,38.0,3.0,-100.00,WNW,287,2.0,6.0,22,0.00,,,0.00,0.000000,,2013-05-26 12:21:00,
2013-05-26 05:52:00,37.0,8.0,-100.00,WNW,287,1.0,5.0,29,0.00,,,0.00,0.000000,,2013-05-26 12:52:00,
2013-05-26 06:02:00,37.0,8.0,-100.00,WNW,287,1.0,5.0,29,0.00,,,0.00,0.000000,,2013-05-26 13:02:00,
2013-05-26 06:32:00,37.0,8.0,-100.00,WNW,287,1.0,5.0,29,0.00,,,0.00,0.000000,,2013-05-26 13:32:00,
2013-05-26 06:52:00,39.0,15.0,-100.00,WNW,285,1.0,5.0,37,-99.99,,,0.00,10.000000,,2013-05-26 13:52:00,
2013-05-26 07:02:00,39.0,15.0,-100.00,WNW,285,1.0,5.0,37,-99.99,,,0.00,10.000000,,2013-05-26 14:02:00,
2013-05-26 07:11:00,39.0,15.0,-100.00,WNW,285,1.0,5.0,37,-99.99,,,0.00,10.000000,,2013-05-26 14:11:00,
2013-05-26 07:21:00,39.0,15.0,-100.00,WNW,285,1.0,5.0,37,-99.99,,,0.00,10.000000,,2013-05-26 14:21:00,
2013-05-26 08:01:00,51.0,22.0,-100.00,South,177,0.0,4.0,32,-99.99,,,0.00,69.000000,,2013-05-26 15:01:00,
2013-05-26 08:12:00,51.0,22.0,-100.00,South,177,0.0,4.0,32,-99.99,,,0.00,69.000000,,2013-05-26 15:12:00,
2013-05-26 08:22:00,51.0,22.0,-100.00,South,177,0.0,4.0,32,-99.99,,,0.00,69.000000,,2013-05-26 15:22:00,
2013-05-26 08:33:00,51.0,22.0,-100.00,South,177,0.0,4.0,32,-99.99,,,0.00,69.000000,,2013-05-26 15:33:00,
2013-05-26 08:53:00,61.0,25.0,-100.00,ESE,113,2.0,6.0,25,0.00,,,0.00,539.000000,,2013-05-26 15:53:00,
2013-05-26 09:03:00,61.0,25.0,-100.00,ESE,113,2.0,6.0,25,0.00,,,0.00,539.000000,,2013-05-26 16:03:00,
2013-05-26 09:12:00,61.0,25.0,-100.00,ESE,113,2.0,6.0,25,0.00,,,0.00,539.000000,,2013-05-26 16:12:00,
2013-05-26 09:23:00,61.0,25.0,-100.00,ESE,113,2.0,6.0,25,0.00,,,0.00,539.000000,,2013-05-26 16:23:00,
2013-05-26 09:33:00,61.0,25.0,-100.00,ESE,113,2.0,6.0,25,0.00,,,0.00,539.000000,,2013-05-26 16:33:00,
2013-05-26 09:53:00,65.0,25.0,-100.00,ESE,110,4.0,10.0,22,0.00,,,0.00,783.000000,,2013-05-26 16:53:00,
2013-05-26 10:02:00,65.0,25.0,-100.00,ESE,110,4.0,10.0,22,0.00,,,0.00,783.000000,,2013-05-26 17:02:00,
2013-05-26 10:11:00,65.0,25.0,-100.00,ESE,110,4.0,10.0,22,0.00,,,0.00,783.000000,,2013-05-26 17:11:00,
2013-05-26 10:22:00,65.0,25.0,-100.00,ESE,110,4.0,10.0,22,0.00,,,0.00,783.000000,,2013-05-26 17:22:00,
2013-05-26 10:32:00,65.0,25.0,-100.00,ESE,110,4.0,10.0,22,0.00,,,0.00,783.000000,,2013-05-26 17:32:00,
2013-05-26 10:52:00,66.0,25.0,-100.00,ESE,107,5.0,10.0,21,0.00,,,0.00,992.000000,,2013-05-26 17:52:00,
2013-05-26 11:01:00,66.0,25.0,-100.00,ESE,107,5.0,10.0,21,0.00,,,0.00,992.000000,,2013-05-26 18:01:00,
2013-05-26 11:12:00,66.0,25.0,-100.00,ESE,107,5.0,10.0,21,0.00,,,0.00,992.000000,,2013-05-26 18:12:00,
2013-05-26 11:21:00,66.0,25.0,-100.00,ESE,107,5.0,10.0,21,0.00,,,0.00,992.000000,,2013-05-26 18:21:00,
2013-05-26 11:31:00,66.0,25.0,-100.00,ESE,107,5.0,10.0,21,0.00,,,0.00,992.000000,,2013-05-26 18:31:00,
2013-05-26 12:01:00,68.0,28.0,-100.00,ESE,111,6.0,11.0,22,0.00,,,0.00,1144.000000,,2013-05-26 19:01:00,
2013-05-26 12:11:00,68.0,28.0,-100.00,ESE,111,6.0,11.0,22,0.00,,,0.00,1144.000000,,2013-05-26 19:11:00,
2013-05-26 12:21:00,68.0,28.0,-100.00,ESE,111,6.0,11.0,22,0.00,,,0.00,1144.000000,,2013-05-26 19:21:00,
2013-05-26 12:31:00,68.0,28.0,-100.00,ESE,111,6.0,11.0,22,0.00,,,0.00,1144.000000,,2013-05-26 19:31:00,
2013-05-26 12:52:00,66.0,27.0,-100.00,ESE,103,5.0,12.0,23,0.00,,,0.00,1222.000000,,2013-05-26 19:52:00,
2013-05-26 13:02:00,66.0,27.0,-100.00,ESE,103,5.0,12.0,23,0.00,,,0.00,1222.000000,,2013-05-26 20:02:00,
2013-05-26 13:11:00,66.0,27.0,-100.00,ESE,103,5.0,12.0,23,0.00,,,0.00,1222.000000,,2013-05-26 20:11:00,
2013-05-26 13:21:00,66.0,27.0,-100.00,ESE,103,5.0,12.0,23,0.00,,,0.00,1222.000000,,2013-05-26 20:21:00,
2013-05-26 13:32:00,66.0,27.0,-100.00,ESE,103,5.0,12.0,23,0.00,,,0.00,1222.000000,,2013-05-26 20:32:00,
2013-05-26 13:52:00,68.0,29.0,-100.00,North,9,6.0,13.0,23,0.00,,,0.00,1234.000000,,2013-05-26 20:52:00,
2013-05-26 14:01:00,68.0,29.0,-100.00,North,9,6.0,13.0,23,0.00,,,0.00,1234.000000,,2013-05-26 21:01:00,
2013-05-26 14:11:00,68.0,29.0,-100.00,North,9,6.0,13.0,23,0.00,,,0.00,1234.000000,,2013-05-26 21:11:00,
2013-05-26 14:22:00,68.0,29.0,-100.00,North,9,6.0,13.0,23,0.00,,,0.00,1234.000000,,2013-05-26 21:22:00,
2013-05-26 14:33:00,68.0,29.0,-100.00,North,9,6.0,13.0,23,0.00,,,0.00,1234.000000,,2013-05-26 21:33:00,
2013-05-26 14:53:00,68.0,30.0,-100.00,SSW,193,4.0,13.0,24,0.00,,,0.00,1188.000000,,2013-05-26 21:53:00,
2013-05-26 15:02:00,68.0,30.0,-100.00,SSW,193,4.0,13.0,24,0.00,,,0.00,1188.000000,,2013-05-26 22:02:00,
2013-05-26 15:12:00,68.0,30.0,-100.00,SSW,193,4.0,13.0,24,0.00,,,0.00,1188.000000,,2013-05-26 22:12:00,
2013-05-26 15:23:00,68.0,30.0,-100.00,SSW,193,4.0,13.0,24,0.00,,,0.00,1188.000000,,2013-05-26 22:23:00,
2013-05-26 15:33:00,68.0,30.0,-100.00,SSW,193,4.0,13.0,24,0.00,,,0.00,1188.000000,,2013-05-26 22:33:00,
2013-05-26 16:02:00,63.0,27.0,-100.00,ESE,116,6.0,14.0,25,0.00,,,0.00,1068.000000,,2013-05-26 23:02:00,
2013-05-26 16:11:00,63.0,27.0,-100.00,ESE,116,6.0,14.0,25,0.00,,,0.00,1068.000000,,2013-05-26 23:11:00,
2013-05-26 16:22:00,63.0,27.0,-100.00,ESE,116,6.0,14.0,25,0.00,,,0.00,1068.000000,,2013-05-26 23:22:00,
2013-05-26 16:32:00,63.0,27.0,-100.00,ESE,116,6.0,14.0,25,0.00,,,0.00,1068.000000,,2013-05-26 23:32:00,
2013-05-26 16:52:00,61.0,26.0,-100.00,East,94,6.0,13.0,26,0.00,,,0.00,890.000000,,2013-05-26 23:52:00,
2013-05-26 17:02:00,61.0,26.0,-100.00,East,94,6.0,13.0,26,0.00,,,0.00,890.000000,,2013-05-27 00:02:00,
2013-05-26 17:11:00,61.0,26.0,-100.00,East,94,6.0,13.0,26,0.00,,,0.00,890.000000,,2013-05-27 00:11:00,
2013-05-26 17:21:00,61.0,26.0,-100.00,East,94,6.0,13.0,26,0.00,,,0.00,890.000000,,2013-05-27 00:21:00,
2013-05-26 17:31:00,61.0,26.0,-100.00,East,94,6.0,13.0,26,0.00,,,0.00,890.000000,,2013-05-27 00:31:00,
2013-05-26 18:01:00,60.0,25.0,-100.00,ESE,116,5.0,10.0,26,0.00,,,0.00,663.000000,,2013-05-27 01:01:00,
2013-05-26 18:11:00,60.0,25.0,-100.00,ESE,116,5.0,10.0,26,0.00,,,0.00,663.000000,,2013-05-27 01:11:00,
2013-05-26 18:22:00,60.0,25.0,-100.00,ESE,116,5.0,10.0,26,0.00,,,0.00,663.000000,,2013-05-27 01:22:00,
2013-05-26 18:31:00,60.0,25.0,-100.00,ESE,116,5.0,10.0,26,0.00,,,0.00,663.000000,,2013-05-27 01:31:00,
2013-05-26 19:01:00,55.0,28.0,-100.00,NE,34,2.0,13.0,35,0.00,,,0.00,255.000000,,2013-05-27 02:01:00,
2013-05-26 19:11:00,55.0,28.0,-100.00,NE,34,2.0,13.0,35,0.00,,,0.00,255.000000,,2013-05-27 02:11:00,
2013-05-26 19:21:00,55.0,28.0,-100.00,NE,34,2.0,13.0,35,0.00,,,0.00,255.000000,,2013-05-27 02:21:00,
2013-05-26 19:31:00,55.0,28.0,-100.00,NE,34,2.0,13.0,35,0.00,,,0.00,255.000000,,2013-05-27 02:31:00,
2013-05-26 19:52:00,49.0,28.0,-100.00,NW,319,0.0,8.0,44,0.00,,,0.00,21.000000,,2013-05-27 02:52:00,
2013-05-26 20:02:00,49.0,28.0,-100.00,NW,319,0.0,8.0,44,0.00,,,0.00,21.000000,,2013-05-27 03:02:00,
2013-05-26 20:11:00,49.0,28.0,-100.00,NW,319,0.0,8.0,44,0.00,,,0.00,21.000000,,2013-05-27 03:11:00,
2013-05-26 20:21:00,49.0,28.0,-100.00,NW,319,0.0,8.0,44,0.00,,,0.00,21.000000,,2013-05-27 03:21:00,
2013-05-26 20:33:00,49.0,28.0,-100.00,NW,319,0.0,8.0,44,0.00,,,0.00,21.000000,,2013-05-27 03:33:00,
2013-05-26 20:53:00,46.0,28.0,-100.00,WNW,288,0.0,4.0,49,0.00,,,0.00,2.000000,,2013-05-27 03:53:00,
2013-05-26 21:02:00,46.0,28.0,-100.00,WNW,288,0.0,4.0,49,0.00,,,0.00,2.000000,,2013-05-27 04:02:00,
2013-05-26 21:12:00,46.0,28.0,-100.00,WNW,288,0.0,4.0,49,0.00,,,0.00,2.000000,,2013-05-27 04:12:00,
2013-05-26 21:22:00,46.0,28.0,-100.00,WNW,288,0.0,4.0,49,0.00,,,0.00,2.000000,,2013-05-27 04:22:00,
2013-05-26 21:33:00,46.0,28.0,-100.00,WNW,288,0.0,4.0,49,0.00,,,0.00,2.000000,,2013-05-27 04:33:00,
2013-05-26 21:52:00,44.0,33.0,-100.00,NW,305,0.0,4.0,65,0.00,,,0.00,0.000000,,2013-05-27 04:52:00,
2013-05-26 22:02:00,44.0,33.0,-100.00,NW,305,0.0,4.0,65,0.00,,,0.00,0.000000,,2013-05-27 05:02:00,
2013-05-26 22:12:00,44.0,33.0,-100.00,NW,305,0.0,4.0,65,0.00,,,0.00,0.000000,,2013-05-27 05:12:00,
2013-05-26 22:22:00,44.0,33.0,-100.00,NW,305,0.0,4.0,65,0.00,,,0.00,0.000000,,2013-05-27 05:22:00,
2013-05-26 22:32:00,44.0,33.0,-100.00,NW,305,0.0,4.0,65,0.00,,,0.00,0.000000,,2013-05-27 05:32:00,
2013-05-26 22:52:00,44.0,33.0,-100.00,SE,127,0.0,6.0,65,0.00,,,0.00,0.000000,,2013-05-27 05:52:00,
2013-05-26 23:01:00,44.0,33.0,-100.00,SE,127,0.0,6.0,65,0.00,,,0.00,0.000000,,2013-05-27 06:01:00,
2013-05-26 23:11:00,44.0,33.0,-100.00,SE,127,0.0,6.0,65,0.00,,,0.00,0.000000,,2013-05-27 06:11:00,
2013-05-26 23:21:00,44.0,33.0,-100.00,SE,127,0.0,6.0,65,0.00,,,0.00,0.000000,,2013-05-27 06:21:00,
2013-05-26 23:31:00,44.0,33.0,-100.00,SE,127,0.0,6.0,65,0.00,,,0.00,0.000000,,2013-05-27 06:31:00,